Home   Weather   Murmansk   Past weeks

Flag for Russia Past Weather in Murmansk, Russia — Yesterday and Last 2 Weeks

Now
-17 °F

Clear.


Feels Like: -17 °F
Forecast: 2 / 29 °F
Wind: 1 mph from Southeast

Location: Murmansk Airport

Current Time: Jan 25, 2017 at 2:39:49 am

Latest Report: Jan 25, 2017 at 1:30 am


Visibility: 10 mi

Pressure: 30.12 "Hg

Humidity: 76%

Dew Point: -22 °F

Location of MurmanskLocation

Past Weather in Murmansk — Graph

°F

Murmansk Temperature Yesterday

Maximum temperature yesterday: 10 °F (at 12:00 am)
Minimum temperature yesterday: -17 °F (at 10:00 pm)
Average temperature yesterday: -3 °F

High & Low Weather Summary for the Past Weeks

 TemperatureHumidityPressure
High34 °F (Jan 11, 3:30 pm)100% (Jan 11, 10:30 am)30.15 "Hg (Jan 11, 10:30 am)
Low-17 °F (Jan 24, 10:00 pm)63% (Jan 20, 1:00 am)28.91 "Hg (Jan 19, 4:30 pm)
Average17 °F83%29.50 "Hg
* Reported Jan 10 1:00 am — Jan 25 1:30 am, Murmansk, Weather by CustomWeather, © 2017

Note: Actual official high and low records may vary slightly from our data, if they occured in-between our weather recording intervals... More about our weather records

Advertising

Murmansk Weather History for the Previous 24 Hours

Scroll right to see more
 ConditionsComfort  
Time TempWeatherWind HumidityBarometerVisibility
1:30 am
Wed, Jan 25
-17 °FClear.1 mph76%30.12 "Hg10 mi
1:00 am-13 °FClear.1 mph69%30.12 "Hg10 mi
12:30 am-17 °FClear.3 mph69%30.12 "Hg10 mi
12:00 am-17 °FClear.1 mph69%30.12 "Hg10 mi
11:30 pm
Tue, Jan 24
-17 °FClear.No wind76%30.12 "Hg10 mi
11:00 pm-17 °FClear.1 mph76%30.12 "Hg10 mi
10:30 pm-15 °FClear.1 mph69%30.12 "Hg10 mi
10:00 pm-17 °FClear.3 mph69%30.12 "Hg10 mi
9:30 pm-15 °FClear.1 mph76%30.12 "Hg10 mi
9:00 pm-15 °FClear.3 mph69%30.15 "Hg10 mi
8:30 pm-13 °FClear.1 mph76%30.15 "Hg10 mi
8:00 pm-15 °FClear.3 mph76%30.15 "Hg10 mi
7:30 pm-13 °FClear.1 mph76%30.12 "Hg10 mi
7:00 pm-13 °FClear.1 mph76%30.12 "Hg10 mi
6:30 pm-13 °FSnow flurries. Passing clouds.1 mph76%30.12 "HgN/A
5:30 pm-11 °FPassing clouds.No wind76%30.12 "HgN/A
5:00 pm-11 °FPassing clouds.1 mph76%30.12 "HgN/A
4:30 pm-9 °FPassing clouds.No wind77%30.12 "HgN/A
4:00 pm-8 °FPassing clouds.No wind77%30.09 "HgN/A
3:30 pm-4 °FPassing clouds.1 mph77%30.09 "HgN/A
3:00 pm-4 °FPassing clouds.No wind77%30.09 "HgN/A
2:30 pm-2 °FPassing clouds.1 mph84%30.07 "HgN/A
2:00 pm0 °FPassing clouds.1 mph78%30.07 "HgN/A
1:30 pm1 °FScattered clouds.No wind78%30.07 "HgN/A
1:00 pm1 °FScattered clouds.1 mph85%30.07 "HgN/A
12:30 pm3 °FPartly sunny.1 mph85%30.04 "HgN/A
12:00 pm5 °FPartly sunny.1 mph85%30.04 "HgN/A
11:30 am3 °FSnow flurries. Partly sunny.1 mph85%30.01 "Hg4 mi
11:00 am3 °FSnow flurries. Partly sunny.No wind78%30.01 "Hg3 mi
10:30 am3 °FPassing clouds.No wind78%30.01 "HgN/A
10:00 am3 °FSnow flurries. Passing clouds.No wind78%29.98 "Hg5 mi
9:30 am0 °FSnow flurries. Passing clouds.No wind78%29.98 "Hg5 mi
9:00 am0 °FSnow flurries. Passing clouds.1 mph78%29.95 "Hg2 mi
8:30 am-2 °FPassing clouds.No wind84%29.95 "HgN/A
8:00 am-4 °FSnow flurries. Passing clouds.3 mph71%29.95 "HgN/A
7:30 am-4 °FSnow flurries. Passing clouds.3 mph77%29.95 "Hg6 mi
7:00 am-2 °FPassing clouds.No wind77%29.92 "Hg6 mi
6:30 am-4 °FSnow flurries. Passing clouds.1 mph77%29.92 "Hg4 mi
6:00 am-6 °FClear.No wind77%29.92 "Hg6 mi
5:30 am-6 °FClear.3 mph77%29.89 "Hg6 mi
5:00 am-6 °FClear.1 mph77%29.89 "Hg5 mi
4:30 am0 °FClear.No wind78%29.89 "Hg5 mi
4:00 am0 °FClear.1 mph78%29.86 "Hg5 mi
3:30 am1 °FPassing clouds.No wind78%29.86 "Hg5 mi
3:00 am3 °FPassing clouds.No wind85%29.86 "Hg5 mi
2:30 am7 °FSnow flurries. Passing clouds.1 mph85%29.83 "Hg5 mi
2:00 am10 °FSnow flurries. Ice fog.1 mph79%29.83 "Hg3 mi
Weather by CustomWeather, © 2017

See weather overviewHow to use our weather pages